Location: Ladrillo (historical)
(32.8195°N, 117.2231°W)
Time: 21:13:31
(UTC+00:00)

GOES 2 Rocket - Pass Details

Date: 29 October 2020
Orbit: 569 x 1674 km, 28.4° (Epoch: 25 November)

Event Time Altitude Azimuth Distance (km) Brightness Sun altitude
Exits shadow 12:16:02 44° 221° (SW) 1,082 3.9 -23.3°
Maximum altitude 12:17:21 55° 174° (S) 984 4.0 -23.1°
Drops below altitude 10° 12:23:51 10° 98° (E) 2,820 7.6 -21.7°
Sets 12:27:02 0° 95° (E) 3,970 8.8 -21.0°
